TimeAST,TemperatureF,Dew PointF,Humidity,Sea Level PressureIn,VisibilityMPH,Wind Direction,Wind SpeedMPH,Gust SpeedMPH,PrecipitationIn,Events,Conditions,WindDirDegrees,DateUTC
12:00 AM,82.4,73.4,74,29.89,6.2,ENE,8.1,-,N/A,,Partly Cloudy,60,2012-10-05 04:00:00
1:00 AM,82.4,71.6,70,29.86,6.2,ENE,8.1,-,N/A,,Partly Cloudy,70,2012-10-05 05:00:00
2:00 AM,81,73,71,29.87,22,ENE,6.9,,,,,70,2012-10-05 06:00:00
2:00 AM,80.6,73.4,79,29.86,6.2,ENE,6.9,-,N/A,,Scattered Clouds,60,2012-10-05 06:00:00
3:00 AM,80.6,71.6,74,29.83,6.2,ESE,9.2,-,N/A,,Partly Cloudy,110,2012-10-05 07:00:00
4:00 AM,80.6,71.6,74,29.83,6.2,NE,8.1,-,N/A,,Partly Cloudy,50,2012-10-05 08:00:00
5:00 AM,81,72,68,29.86,22,ENE,5.8,,,,Scattered Clouds,60,2012-10-05 09:00:00
5:00 AM,80.6,71.6,74,29.86,6.2,ENE,5.8,-,N/A,,Partly Cloudy,60,2012-10-05 09:00:00
6:00 AM,80.6,73.4,79,29.86,6.2,ENE,4.6,-,N/A,,Partly Cloudy,70,2012-10-05 10:00:00
7:00 AM,82.4,73.4,74,29.89,6.2,ENE,4.6,-,N/A,,Partly Cloudy,70,2012-10-05 11:00:00
8:00 AM,84,73,62,29.89,37,East,6.9,,,,Partly Cloudy,90,2012-10-05 12:00:00
8:00 AM,84.2,73.4,70,29.89,6.2,East,6.9,-,N/A,,Partly Cloudy,90,2012-10-05 12:00:00
10:00 AM,87.8,71.6,58,29.89,6.2,NE,8.1,-,N/A,,Scattered Clouds,40,2012-10-05 14:00:00
12:00 PM,87.8,69.8,55,29.86,6.2,NNE,9.2,-,N/A,,Partly Cloudy,30,2012-10-05 16:00:00
1:00 PM,87.8,69.8,55,29.83,6.2,North,6.9,-,N/A,,Partly Cloudy,10,2012-10-05 17:00:00
2:00 PM,87,69,46,29.83,40,NNE,8.1,,,,Scattered Clouds,30,2012-10-05 18:00:00
2:00 PM,87.8,69.8,55,29.80,6.2,NNE,8.1,-,N/A,,Partly Cloudy,20,2012-10-05 18:00:00
3:00 PM,86.0,71.6,62,29.80,6.2,NNE,6.9,-,N/A,,Partly Cloudy,20,2012-10-05 19:00:00
4:00 PM,87.8,69.8,55,29.80,6.2,NNE,6.9,-,N/A,,Partly Cloudy,30,2012-10-05 20:00:00
5:00 PM,86,70,49,29.81,44,NNE,5.8,,,,Scattered Clouds,30,2012-10-05 21:00:00
5:00 PM,86.0,69.8,58,29.80,6.2,NNE,6.9,-,N/A,,Partly Cloudy,30,2012-10-05 21:00:00
6:00 PM,84.2,69.8,62,29.80,6.2,East,8.1,-,N/A,,Scattered Clouds,80,2012-10-05 22:00:00
7:00 PM,82.4,71.6,70,29.80,6.2,East,5.8,-,N/A,,Partly Cloudy,80,2012-10-05 23:00:00
8:00 PM,82,71,61,29.83,40,East,4.6,,,,Scattered Clouds,80,2012-10-06 00:00:00
8:00 PM,80.6,71.6,74,29.83,6.2,East,4.6,-,N/A,,Partly Cloudy,80,2012-10-06 00:00:00
9:00 PM,80.6,71.6,74,29.83,6.2,Variable,3.5,-,N/A,,Partly Cloudy,0,2012-10-06 01:00:00
10:00 PM,80.6,71.6,74,29.83,6.2,Variable,2.3,-,N/A,,Partly Cloudy,0,2012-10-06 02:00:00
11:00 PM,81,71,65,29.84,40,,1.2,,,,Scattered Clouds,,2012-10-06 03:00:00
11:00 PM,80.6,71.6,74,29.83,6.2,Variable,1.2,-,N/A,,Partly Cloudy,0,2012-10-06 03:00:00